Miscellaneous Local Product
Issued by NWS Hastings, NE

Home | Current Version | Previous Version | Text Only | Print | Product List | Glossary Off
Versions: 1 2 3 4 5 6 7 8 9 10 11 12 13 14 15 16 17 18 19 20 21 22 23 24 25 26 27 28 29 30 31 32 33 34 35 36 37 38 39 40 41 42 43 44 45 46 47 48 49 50

000
AXUS43 KGID 271402
MISGRI

GID CWA HOURLY WEATHER ROUNDUP
NATIONAL WEATHER SERVICE HASTINGS NE
900 AM CDT MON APR 27 2015

NOTE: "FAIR" INDICATES FEW OR NO CLOUDS BELOW 12,000 FEET WITH NO
SIGNIFICANT WEATHER AND/OR OBSTRUCTIONS TO VISIBILITY.

...SOUTH CENTRAL NEBRASKA...

CITY           SKY/WX    TMP DP  RH WIND       PRES   REMARKS
GRAND ISLAND   MOSUNNY   48  38  68 NE7       30.21S
HASTINGS       CLOUDY    46  38  73 NE7       30.19R
KEARNEY        CLOUDY    45  37  76 N8        30.20S
ORD            MOSUNNY   46  38  73 N6        30.21R
YORK           PTSUNNY   48  41  76 NE6       30.21S
AURORA         PTSUNNY   49  41  73 NE8       30.20S
LEXINGTON      PTSUNNY   43  41  91 NE6       30.20S
HOLDREGE       CLOUDY    43  38  82 N9        30.18S
HEBRON         CLOUDY    46  36  68 NE7       30.18R

...NEBRASKA PANHANDLE...

CITY           SKY/WX    TMP DP  RH WIND       PRES   REMARKS
CHADRON        PTSUNNY   46  42  86 W7        30.24R
ALLIANCE       PTSUNNY   46  40  79 N3        30.23R
SCOTTSBLUFF    CLOUDY    46  40  79 CALM      30.24R
SIDNEY         CLOUDY    44  40  85 NE7       30.23R

...WESTERN AND NORTH CENTRAL NEBRASKA...

CITY           SKY/WX    TMP DP  RH WIND       PRES   REMARKS
VALENTINE      MOSUNNY   45  36  70 W5        30.24R
AINSWORTH      MOSUNNY   48  40  74 NW5       30.23R
ONEILL         SUNNY     48  38  66 W7        30.21S
BROKEN BOW     MOSUNNY   51  41  68 N10       30.21R
IMPERIAL       MOSUNNY   46  39  76 NE6       30.20R
NORTH PLATTE   NOT AVBL
MCCOOK         CLOUDY    46  38  73 N8        30.19R

...EASTERN NEBRASKA...

CITY           SKY/WX    TMP DP  RH WIND       PRES   REMARKS
NORFOLK        SUNNY     50  38  63 CALM      30.21S
SO SIOUX CITY  SUNNY     50  35  56 VRB3      30.22R
TEKAMAH        SUNNY     51  39  63 N8        30.22R
COLUMBUS       SUNNY     48  36  61 CALM      30.23S
ALBION         SUNNY     48  39  72 CALM      30.21S
OMAHA EPPLEY   PTSUNNY   47  38  71 N8        30.21R
OFFUTT AFB     SUNNY     51  38  60 VRB2      30.20R
MILLARD        SUNNY     51  35  55 N3        30.21R
LINCOLN        MOSUNNY   50  39  66 N6        30.22R
NEBRASKA CITY  MOSUNNY   48  33  54 N6        30.19S
BEATRICE       CLOUDY    46  38  75 NE8       30.18S
FALLS CITY     CLOUDY    48  39  71 NW3       30.17S

...NORTHERN KANSAS...

CITY           SKY/WX    TMP DP  RH WIND       PRES   REMARKS
GOODLAND       CLOUDY    42  40  92 NE8       30.18R
HILL CITY      CLOUDY    47  35  63 NE13      30.16R
NORTON         SUNNY     43  34  70 NE7       30.17R
PHILLIPSBURG   SUNNY     48  37  66 N9        30.17R
SMITH CENTER   SUNNY     45  34  65 NE12      30.17R
HAYS           PTSUNNY   46  34  61 NE14      30.13R
RUSSELL        CLOUDY    46  37  71 NE12      30.12R
CONCORDIA      CLOUDY    46  36  68 NE8       30.15R
SALINA         CLOUDY    48  36  63 NE10      30.13R
TOPEKA         CLOUDY    49  39  68 NE8       30.16R



USA.gov is the U.S. government's official web portal to all federal, state and local government web resources and services.